Погода в Чарышском

Россия / Алтайский край     52°09′21″N   83°18′21″E
темп.,
°C
ветер,
м/с
пор.,
м/с
влажн.,
%
обл.,
%
осадки,
мм/ч
давл.,
гПа
погр.,
м
8 марта, пн
пн801:00−6ююв2389100 0.0 102122
04:00−7юв2385100 0.0 101921
07:00−7юв2285100 0.0 101821
10:00−4ю2281100 0.0 101528
13:00+1ююз3158696 0.0 1013975
16:00+2юз101976100 0.0 1013905
19:00+2юз101980100 0.0 1013850
22:00+2юз101982100 0.0 1015838
9 марта, вт
вт901:00+1зюз71397100 1.0 1019781
04:00−7з51090100 0.4 1024438
07:00−12юз489583 0.4 1029181
10:00−11юз47929 0.0 1030266
13:00−7зюз478810 0.0 1029419
16:00−6зюз24820 0.0 1027384
19:00−8ююв118636 0.0 102621
22:00−9юв229169 0.0 102521
10 марта, ср
ср1001:00−8юв229471 0.0 102321
04:00−8ююз129253 0.0 102121
07:00−8ююв119438 0.0 102121
10:00−5вюв129177 0.0 101933
13:00−1вюв128643 0.0 1017149
16:000в349024 0.0 1014181
19:00−2вюв339062 0.0 101143
22:00−2юв3387100 0.0 100930
11 марта, чт
чт1101:000юз3979100 0.0 1007196
04:00+2юз81991100 0.0 1007768
07:00+2юз81597100 0.6 1010571
10:00−3з71283100 0.4 1014535
13:00−3зюз6983100 0.4 1016519
16:00−3зюз71185100 0.0 1019659
19:00−4юз71386100 0.1 1021786
22:00−4юз6158480 0.0 1023515
12 марта, пт
пт1201:00−4ююз5177445 0.0 1021546
04:00−2юз9187276 0.0 1020878
07:00−3юз7158188 0.1 1019736
10:00−4зюз81395100 2.5 1020863
13:00−5зсз5894100 4.9 1020445
16:00−6з61092100 0.9 1020789
19:00−6з3696100 2.4 1020441
22:00−9с2396100 2.0 1020187